weather.gov     
National Weather Service

Terminal Aerodrome Forecast
NWS Homepage
This page is being discontinued on March 12, 2014.
The same data is available at this site. Please update your bookmarks.
Thank you, and we apologize for the inconvenience.
Please send an email to SR-SRH.Webmaster@noaa.gov with any concerns.


Current Version
Previous Version:    01  02  03  04  05  06  07  08  09  10  11  12  13  14  
[Printable]
516
FTUS41 KGYX 302322
TAFPSM
TAF
KPSM 302322Z 3100/3124 33005KT P6SM SCT200
     FM311400 04006KT P6SM BKN200
     FM311800 09007KT P6SM BKN050=




516
FTUS41 KGYX 302322
TAFPSM
TAF
KPSM 302322Z 3100/3124 33005KT P6SM SCT200
     FM311400 04006KT P6SM BKN200
     FM311800 09007KT P6SM BKN050=


U.S. Dept. of Commerce
NOAA National Weather Service
1325 East West Highway
Silver Spring, MD 20910
E-mail: w-nws.webmaster@noaa.gov
Page last modified: May 16, 2007
NATIONAL WEATHER SERVICE: for Safety, for Work, for Fun - FOR LIFE